Zurück zum Katalog

STARLINK-36664

AktivKommunikationVLEO
NORAD 68965·PAYLOAD·🇺🇸 United States

Gestartet May 1, 2026 von Cape Canaveral Space Force Station

Loading…

Nächste Überflüge (nächste 24 Stunden)

TLE

AktuellSource: CelesTrak SupGP

Epoche: Sep 15, 2026, 03:37 UTC

1 68965C 26099Q   26258.15118056 -.00012102  00000+0 -35758-3 0  2586
2 68965  53.1571 100.7309 0001232  84.2800 289.2819 15.34394799    12

Verfolge STARLINK-36664 in Echtzeit mit AllMySat

Download on the App Store